User: anonymous   Login
Location: Nians�bougou
(13.2321°N, 4.9818°W)
Time: 17:51:47
(UTC+00:00)
Language:

Cosmos 2221 - Orbit

View from above orbital plane
View from above orbital plane
View from above satellite
View from above satellite

Ground track
Ground track

The orbit data is extracted from the following two-line orbital elements,

1 22236U 92080A   20151.46860740 +.00000157 +00000-0 +14407-4 0  9991
2 22236 082.5066 120.6502 0017438 026.4820 333.7284 14.87922182466601
Epoch (UTC): 30 May 2020 11:14:47
Eccentricity: 0.0017438
inclination: 82.5066°
perigee height: 592 km
apogee height: 616 km
right ascension of ascending node: 120.6502°
argument of perigee: 26.4820°
revolutions per day: 14.87922182
mean anomaly at epoch: 333.7284°
orbit number at epoch: 46660

The dashed part of the orbit path shows where the satellite is in the earth's shadow,  

DLR